CMM616 SEGU-SKBQ

Flight info

Callsign CMM616
Flight time N/A
Altitude 36000
Route GYV4 GYV UT33 BIVAN UM662 AKPOT DCT ASIKO DCT UIB DCT REMUK DCT MTR W81 UGSOL UGSOL1D
Aircraft B38M/M-SDE1FGHILORVWXY/HB1

Departure

Time 2026-05-04 17:36
Airport José Joaquín de Olmedo International Airport (SEGU)

Arrival

Time N/A
Airport Ernesto Cortissoz International Airport (SKBQ)
Time Latitude Longitude Altitude Speed Heading
2026-05-04 17:27 -2.14940 -79.88385 31 ft 0 kts 274°
2026-05-04 17:29 -2.14942 -79.88369 31 ft 4 kts 289°
2026-05-04 17:30 -2.14989 -79.88317 31 ft 4 kts 11°
2026-05-04 17:31 -2.15016 -79.88330 31 ft 0 kts 30°
2026-05-04 17:33 -2.15000 -79.88321 31 ft 6 kts 30°
2026-05-04 17:34 -2.14784 -79.88178 31 ft 15 kts 79°
2026-05-04 17:34 -2.14828 -79.88083 31 ft 16 kts 114°
2026-05-04 17:35 -2.14633 -79.87812 31 ft 19 kts 83°
2026-05-04 17:35 -2.14684 -79.87755 30 ft 0 kts 210°
2026-05-04 17:35 -2.14755 -79.87796 30 ft 44 kts 210°
2026-05-04 17:36 -2.15244 -79.88079 31 ft 119 kts 210°
2026-05-04 17:36 -2.16166 -79.88611 51 ft 178 kts 211°
2026-05-04 17:36 -2.17253 -79.89243 732 ft 187 kts 208°
2026-05-04 17:36 -2.18434 -79.89903 1424 ft 203 kts 209°
2026-05-04 17:37 -2.19756 -79.90636 2014 ft 230 kts 209°
2026-05-04 17:37 -2.21271 -79.91230 2898 ft 240 kts 189°
2026-05-04 17:37 -2.22985 -79.91085 3596 ft 260 kts 156°
2026-05-04 17:37 -2.24382 -79.89920 4422 ft 273 kts 122°
2026-05-04 17:38 -2.24970 -79.88075 5083 ft 291 kts 90°
2026-05-04 17:38 -2.24513 -79.86064 5714 ft 308 kts 61°
2026-05-04 17:38 -2.23097 -79.84448 6601 ft 312 kts 38°
2026-05-04 17:38 -2.21234 -79.83310 7461 ft 318 kts 22°
2026-05-04 17:39 -2.17011 -79.81828 9239 ft 326 kts 20°
2026-05-04 17:39 -2.14857 -79.81070 10096 ft 330 kts 20°
2026-05-04 17:39 -2.12676 -79.80300 10873 ft 334 kts 20°
2026-05-04 17:40 -2.10477 -79.79524 11682 ft 336 kts 21°
2026-05-04 17:40 -2.08263 -79.78743 12455 ft 340 kts 21°
2026-05-04 17:40 -2.06044 -79.77960 13216 ft 343 kts 22°
2026-05-04 17:40 -2.03755 -79.77153 13944 ft 346 kts 22°
2026-05-04 17:41 -2.01475 -79.76350 14596 ft 349 kts 22°
2026-05-04 17:41 -1.99173 -79.75539 15227 ft 352 kts 22°
2026-05-04 17:41 -1.96877 -79.74729 15846 ft 355 kts 22°
2026-05-04 17:41 -1.94534 -79.73903 16460 ft 358 kts 22°
2026-05-04 17:42 -1.92168 -79.73069 17047 ft 361 kts 22°
2026-05-04 17:42 -1.89787 -79.72230 17623 ft 364 kts 22°
2026-05-04 17:42 -1.87385 -79.71383 18199 ft 368 kts 22°
2026-05-04 17:42 -1.84963 -79.70529 18722 ft 369 kts 22°
2026-05-04 17:43 -1.82534 -79.69673 19242 ft 372 kts 21°
2026-05-04 17:43 -1.80080 -79.68808 19716 ft 376 kts 21°
2026-05-04 17:43 -1.77599 -79.67933 20160 ft 379 kts 21°
2026-05-04 17:43 -1.75098 -79.67051 20620 ft 382 kts 21°
2026-05-04 17:44 -1.72585 -79.66166 21064 ft 385 kts 21°
2026-05-04 17:44 -1.70051 -79.65272 21503 ft 387 kts 21°
2026-05-04 17:44 -1.67500 -79.64373 21936 ft 390 kts 21°
2026-05-04 17:44 -1.64928 -79.63467 22381 ft 393 kts 21°
2026-05-04 17:45 -1.62336 -79.62553 22799 ft 396 kts 21°
2026-05-04 17:45 -1.60606 -79.61944 23070 ft 398 kts 21°
2026-05-04 17:45 -1.57982 -79.61019 23483 ft 401 kts 21°
2026-05-04 17:45 -1.54484 -79.59785 23938 ft 404 kts 21°
2026-05-04 17:46 -1.51846 -79.58808 24299 ft 406 kts 22°
2026-05-04 17:46 -1.50055 -79.58141 24536 ft 407 kts 22°
2026-05-04 17:46 -1.47392 -79.57151 24937 ft 409 kts 21°
2026-05-04 17:46 -1.44755 -79.56172 25294 ft 410 kts 21°
2026-05-04 17:47 -1.42072 -79.55177 25628 ft 413 kts 22°
2026-05-04 17:47 -1.39374 -79.54176 25974 ft 415 kts 22°
2026-05-04 17:47 -1.36656 -79.53168 26309 ft 417 kts 22°
2026-05-04 17:47 -1.33932 -79.52157 26646 ft 419 kts 22°
2026-05-04 17:48 -1.31189 -79.51140 26978 ft 421 kts 22°
2026-05-04 17:48 -1.28438 -79.50120 27295 ft 423 kts 22°
2026-05-04 17:48 -1.25668 -79.49093 27630 ft 425 kts 22°
2026-05-04 17:48 -1.22889 -79.48062 27942 ft 427 kts 22°
2026-05-04 17:49 -1.20095 -79.47026 28281 ft 429 kts 22°
2026-05-04 17:49 -1.17287 -79.45985 28587 ft 432 kts 22°
2026-05-04 17:49 -1.14460 -79.44936 28899 ft 434 kts 22°
2026-05-04 17:49 -1.11624 -79.43885 29194 ft 436 kts 22°
2026-05-04 17:50 -1.08781 -79.42831 29509 ft 437 kts 23°
2026-05-04 17:50 -1.05917 -79.41769 29856 ft 439 kts 23°
2026-05-04 17:50 -1.03045 -79.40704 30111 ft 442 kts 23°
2026-05-04 17:50 -1.00157 -79.39632 30360 ft 443 kts 23°
2026-05-04 17:51 -0.97258 -79.38558 30600 ft 445 kts 23°
2026-05-04 17:51 -0.94386 -79.37493 30840 ft 447 kts 23°
2026-05-04 17:51 -0.91464 -79.36410 31070 ft 448 kts 23°
2026-05-04 17:51 -0.88539 -79.35325 31307 ft 450 kts 23°
2026-05-04 17:52 -0.85596 -79.34234 31530 ft 452 kts 23°
2026-05-04 17:52 -0.82642 -79.33139 31758 ft 453 kts 23°
2026-05-04 17:52 -0.79682 -79.32041 31978 ft 455 kts 23°
2026-05-04 17:52 -0.76707 -79.30938 32197 ft 457 kts 23°
2026-05-04 17:53 -0.73719 -79.29831 32435 ft 458 kts 23°
2026-05-04 17:53 -0.70720 -79.28719 32669 ft 459 kts 23°
2026-05-04 17:53 -0.67724 -79.27608 32944 ft 461 kts 23°
2026-05-04 17:53 -0.64715 -79.26492 33153 ft 462 kts 23°
2026-05-04 17:54 -0.61700 -79.25375 33418 ft 462 kts 23°
2026-05-04 17:54 -0.58684 -79.24256 33685 ft 462 kts 23°
2026-05-04 17:54 -0.55676 -79.23140 33970 ft 461 kts 23°
2026-05-04 17:54 -0.52670 -79.22026 34231 ft 461 kts 23°
2026-05-04 17:55 -0.49666 -79.20911 34494 ft 459 kts 23°
2026-05-04 17:55 -0.46673 -79.19801 34755 ft 458 kts 23°
2026-05-04 17:55 -0.43688 -79.18694 34988 ft 457 kts 23°
2026-05-04 17:55 -0.40708 -79.17588 35235 ft 456 kts 23°
2026-05-04 17:56 -0.37734 -79.16485 35486 ft 456 kts 23°
2026-05-04 17:56 -0.34795 -79.15395 35734 ft 455 kts 23°
2026-05-04 17:56 -0.31827 -79.14294 35979 ft 454 kts 23°
2026-05-04 17:56 -0.28865 -79.13196 36084 ft 455 kts 22°
2026-05-04 17:57 -0.22966 -79.11007 36131 ft 451 kts 23°
2026-05-04 17:57 -0.17076 -79.08822 36120 ft 451 kts 23°
2026-05-04 17:58 -0.11175 -79.06633 36115 ft 451 kts 22°
2026-05-04 17:58 -0.05299 -79.04454 36114 ft 452 kts 22°
2026-05-04 17:59 0.00602 -79.02265 36105 ft 452 kts 22°
2026-05-04 18:00 0.09413 -78.98997 36102 ft 451 kts 22°
2026-05-04 18:00 0.15307 -78.96811 36140 ft 451 kts 22°
2026-05-04 18:01 0.21177 -78.94634 36145 ft 451 kts 22°
2026-05-04 18:01 0.27095 -78.92439 36140 ft 451 kts 22°
2026-05-04 18:02 0.35897 -78.89174 36137 ft 451 kts 22°
2026-05-04 18:02 0.41794 -78.86986 36126 ft 451 kts 22°
2026-05-04 18:03 0.47669 -78.84807 36107 ft 450 kts 22°
2026-05-04 18:03 0.53526 -78.82635 36156 ft 451 kts 22°
2026-05-04 18:04 0.59417 -78.80448 36135 ft 450 kts 22°
2026-05-04 18:05 0.68227 -78.77181 36134 ft 450 kts 22°
2026-05-04 18:05 0.74130 -78.74990 36141 ft 451 kts 22°
2026-05-04 18:06 0.82815 -78.71769 36099 ft 451 kts 22°
2026-05-04 18:06 0.88703 -78.69584 36080 ft 451 kts 22°
2026-05-04 18:07 0.94593 -78.67400 36067 ft 452 kts 22°
2026-05-04 18:07 1.00497 -78.65209 36076 ft 453 kts 22°
2026-05-04 18:08 1.06404 -78.63017 36045 ft 453 kts 22°
2026-05-04 18:08 1.12313 -78.60824 36045 ft 453 kts 22°
2026-05-04 18:09 1.24115 -78.56445 36023 ft 454 kts 22°
2026-05-04 18:10 1.30034 -78.54248 36027 ft 454 kts 22°
2026-05-04 18:10 1.35959 -78.52049 35995 ft 453 kts 22°
2026-05-04 18:11 1.41870 -78.49855 35988 ft 454 kts 22°
2026-05-04 18:11 1.47819 -78.47647 35993 ft 454 kts 22°
2026-05-04 18:12 1.53723 -78.45455 35977 ft 453 kts 22°
2026-05-04 18:12 1.59616 -78.43268 35974 ft 452 kts 22°
2026-05-04 18:13 1.65527 -78.41074 35950 ft 452 kts 22°
2026-05-04 18:14 1.74368 -78.37791 35964 ft 452 kts 22°
2026-05-04 18:14 1.80230 -78.35615 35958 ft 452 kts 22°
2026-05-04 18:15 1.92036 -78.31231 35944 ft 451 kts 22°
2026-05-04 18:16 1.97890 -78.29057 35945 ft 451 kts 22°
2026-05-04 18:16 2.03810 -78.26858 35929 ft 451 kts 22°
2026-05-04 18:17 2.12622 -78.23585 35935 ft 451 kts 22°
2026-05-04 18:18 2.21431 -78.20312 35944 ft 451 kts 22°
2026-05-04 18:18 2.27312 -78.18128 35937 ft 451 kts 22°
2026-05-04 18:19 2.36139 -78.14848 35938 ft 452 kts 22°
2026-05-04 18:19 2.42045 -78.12653 35930 ft 451 kts 22°
2026-05-04 18:20 2.47935 -78.10464 35929 ft 452 kts 22°
2026-05-04 18:20 2.53825 -78.08275 35935 ft 452 kts 22°
2026-05-04 18:21 2.59723 -78.06082 35934 ft 452 kts 22°
2026-05-04 18:21 2.65582 -78.03904 35922 ft 451 kts 22°
2026-05-04 18:22 2.71480 -78.01711 35929 ft 452 kts 22°
2026-05-04 18:22 2.77386 -77.99515 35925 ft 451 kts 22°
2026-05-04 18:23 2.83244 -77.97337 35911 ft 451 kts 22°
2026-05-04 18:23 2.89132 -77.95147 35913 ft 452 kts 22°
2026-05-04 18:24 2.95037 -77.92951 35907 ft 452 kts 22°
2026-05-04 18:24 3.00942 -77.90755 35910 ft 453 kts 22°
2026-05-04 18:25 3.06833 -77.88563 35913 ft 455 kts 22°
2026-05-04 18:25 3.12771 -77.86353 35907 ft 454 kts 22°
2026-05-04 18:26 3.18695 -77.84149 35912 ft 454 kts 22°
2026-05-04 18:26 3.24627 -77.81941 35907 ft 454 kts 22°
2026-05-04 18:27 3.30563 -77.79732 35927 ft 454 kts 22°
2026-05-04 18:27 3.36450 -77.77540 35917 ft 454 kts 22°
2026-05-04 18:28 3.42416 -77.75319 35921 ft 454 kts 22°
2026-05-04 18:28 3.48320 -77.73121 35919 ft 454 kts 22°
2026-05-04 18:29 3.54254 -77.70911 35924 ft 454 kts 22°
2026-05-04 18:29 3.60181 -77.68703 35918 ft 454 kts 22°
2026-05-04 18:30 3.69068 -77.65392 35933 ft 454 kts 22°
2026-05-04 18:31 3.74987 -77.63188 35928 ft 456 kts 22°
2026-05-04 18:31 3.80937 -77.60970 35934 ft 457 kts 22°
2026-05-04 18:32 3.85917 -77.59114 35931 ft 457 kts 22°
2026-05-04 18:32 3.91827 -77.56911 35924 ft 454 kts 21°
2026-05-04 18:33 3.98740 -77.54334 35930 ft 455 kts 21°
2026-05-04 18:33 4.03691 -77.52487 35938 ft 454 kts 22°
2026-05-04 18:34 4.09618 -77.50277 35938 ft 455 kts 21°
2026-05-04 18:34 4.15542 -77.48068 35947 ft 456 kts 21°
2026-05-04 18:35 4.21485 -77.45851 35939 ft 456 kts 21°
2026-05-04 18:35 4.27457 -77.43623 35938 ft 456 kts 21°
2026-05-04 18:36 4.33360 -77.41420 35939 ft 456 kts 21°
2026-05-04 18:36 4.39329 -77.39193 35942 ft 456 kts 21°
2026-05-04 18:37 4.45277 -77.36972 35958 ft 456 kts 21°
2026-05-04 18:37 4.51222 -77.34752 35956 ft 457 kts 21°
2026-05-04 18:38 4.57184 -77.32526 35942 ft 457 kts 21°
2026-05-04 18:38 4.63152 -77.30297 35939 ft 457 kts 21°
2026-05-04 18:39 4.69073 -77.28085 35944 ft 457 kts 21°
2026-05-04 18:39 4.75049 -77.25852 35943 ft 457 kts 21°
2026-05-04 18:40 4.80996 -77.23630 35949 ft 457 kts 21°
2026-05-04 18:40 4.86989 -77.21390 35956 ft 459 kts 21°
2026-05-04 18:41 4.92967 -77.19155 35961 ft 460 kts 21°
2026-05-04 18:41 4.98941 -77.16921 35960 ft 460 kts 21°
2026-05-04 18:42 5.04968 -77.14667 35961 ft 460 kts 21°
2026-05-04 18:42 5.10968 -77.12423 35960 ft 460 kts 21°
2026-05-04 18:43 5.16946 -77.10187 35960 ft 460 kts 21°
2026-05-04 18:43 5.22920 -77.07951 35967 ft 461 kts 21°
2026-05-04 18:44 5.28942 -77.05697 35974 ft 462 kts 21°
2026-05-04 18:44 5.34981 -77.03437 35974 ft 462 kts 21°
2026-05-04 18:45 5.41006 -77.01181 35974 ft 462 kts 21°
2026-05-04 18:45 5.46994 -76.98938 35976 ft 462 kts 21°
2026-05-04 18:46 5.53050 -76.96670 35972 ft 462 kts 21°
2026-05-04 18:46 5.59038 -76.94426 35954 ft 463 kts 21°
2026-05-04 18:47 5.65118 -76.92147 35967 ft 467 kts 21°
2026-05-04 18:47 5.71216 -76.89862 35964 ft 466 kts 21°
2026-05-04 18:48 5.77144 -76.87639 35966 ft 466 kts 21°
2026-05-04 18:48 5.83215 -76.85360 35945 ft 465 kts 21°
2026-05-04 18:49 5.89249 -76.83062 35936 ft 462 kts 26°
2026-05-04 18:49 5.91924 -76.81355 35910 ft 453 kts 44°
2026-05-04 18:49 5.93986 -76.79020 35476 ft 446 kts 57°
2026-05-04 18:49 5.95466 -76.76264 34572 ft 451 kts 70°
2026-05-04 18:50 5.96349 -76.73229 33756 ft 454 kts 82°
2026-05-04 18:50 5.96555 -76.70083 33016 ft 453 kts 94°
2026-05-04 18:50 5.96248 -76.66911 32023 ft 459 kts 95°
2026-05-04 18:50 5.96008 -76.63739 31157 ft 464 kts 95°
2026-05-04 18:51 5.95773 -76.60498 30359 ft 465 kts 95°
2026-05-04 18:51 5.95541 -76.57242 29392 ft 469 kts 95°
2026-05-04 18:51 5.95309 -76.53966 28403 ft 472 kts 94°
2026-05-04 18:51 5.95069 -76.50686 27672 ft 469 kts 95°
2026-05-04 18:52 5.94821 -76.47435 26885 ft 467 kts 94°
2026-05-04 18:52 5.94591 -76.44159 25865 ft 472 kts 94°
2026-05-04 18:52 5.94344 -76.40912 25644 ft 457 kts 95°
2026-05-04 18:52 5.94070 -76.37787 25474 ft 442 kts 95°
2026-05-04 18:53 5.93808 -76.34748 25319 ft 429 kts 95°
2026-05-04 18:53 5.93554 -76.31806 25125 ft 417 kts 95°
2026-05-04 18:53 5.93312 -76.28946 24937 ft 405 kts 94°
2026-05-04 18:53 5.93085 -76.26119 24574 ft 411 kts 94°
2026-05-04 18:54 5.92873 -76.23237 24037 ft 415 kts 94°
2026-05-04 18:54 5.92656 -76.20329 23445 ft 417 kts 94°
2026-05-04 18:54 5.92438 -76.17433 22816 ft 415 kts 94°
2026-05-04 18:54 5.92215 -76.14556 22250 ft 412 kts 94°
2026-05-04 18:55 5.91990 -76.11692 21694 ft 410 kts 94°
2026-05-04 18:55 5.91553 -76.06050 20625 ft 405 kts 94°
2026-05-04 18:55 5.91333 -76.03198 20088 ft 404 kts 94°
2026-05-04 18:56 5.91118 -76.00426 19558 ft 402 kts 94°
2026-05-04 18:56 5.90902 -75.97629 19041 ft 400 kts 94°
2026-05-04 18:56 5.90686 -75.94846 18540 ft 399 kts 94°
2026-05-04 18:56 5.90470 -75.92062 17794 ft 402 kts 94°
2026-05-04 18:57 5.90257 -75.89257 17134 ft 402 kts 94°
2026-05-04 18:57 5.90039 -75.86468 16629 ft 398 kts 94°
2026-05-04 18:57 5.89822 -75.83716 16211 ft 392 kts 94°
2026-05-04 18:57 5.89607 -75.81006 15777 ft 387 kts 94°
2026-05-04 18:58 5.89396 -75.78348 15572 ft 376 kts 94°
2026-05-04 18:58 5.89189 -75.75754 15332 ft 367 kts 94°
2026-05-04 18:58 5.88988 -75.73237 15120 ft 357 kts 95°
2026-05-04 18:58 5.88793 -75.70783 14948 ft 348 kts 94°
2026-05-04 18:59 5.88605 -75.68396 14769 ft 339 kts 95°
2026-05-04 18:59 5.88423 -75.66083 14669 ft 324 kts 94°
2026-05-04 18:59 5.88250 -75.63879 14499 ft 317 kts 94°
2026-05-04 18:59 5.88080 -75.61691 14335 ft 310 kts 94°
2026-05-04 19:00 5.87915 -75.59557 14192 ft 302 kts 94°
2026-05-04 19:00 5.87754 -75.57479 14052 ft 295 kts 94°
2026-05-04 19:00 5.87597 -75.55446 13899 ft 289 kts 94°
2026-05-04 19:00 5.87484 -75.53459 13704 ft 283 kts 90°
2026-05-04 19:01 5.87506 -75.51502 13441 ft 276 kts 90°
2026-05-04 19:01 5.87521 -75.49618 13199 ft 264 kts 90°
2026-05-04 19:01 5.87528 -75.47800 12900 ft 256 kts 90°
2026-05-04 19:01 5.87533 -75.46068 12701 ft 241 kts 90°
2026-05-04 19:02 5.87628 -75.44431 12421 ft 233 kts 76°
2026-05-04 19:02 5.88393 -75.43020 12056 ft 233 kts 49°
2026-05-04 19:02 5.89752 -75.42154 11715 ft 235 kts 20°
2026-05-04 19:02 5.91378 -75.42012 11399 ft 236 kts 357°
2026-05-04 19:03 5.92998 -75.42160 11105 ft 232 kts 358°